Piedras Negras, Mexico

8:46 AM CDT on June 23, 2017 (GMT -0500)
Piedras Negras International

Weather History for MMPG - November, 2012

Change the Weather History Date:

Saturday, November 24, 2012

  Actual Average Record
Temperature  
Mean Temperature 62 °F -  
Max Temperature 74 °F 69 °F 84 °F (2005)
Min Temperature 50 °F 49 °F 32 °F (2003)
Degree Days  
Heating Degree Days 3    
Growing Degree Days 12 (Base 50)    
Moisture  
Dew Point 39 °F    
Average Humidity 39    
Maximum Humidity 65    
Minimum Humidity 24    
Precipitation  
Precipitation 0.00 in - - ()
Sea Level Pressure  
Sea Level Pressure 30.29 in    
Wind  
Wind Speed 3 mph ()    
Max Wind Speed 7 mph    
Max Gust Speed -    
Visibility 10.9 miles    
Events      
Averages and records for this station are not official NWS values.
T = Trace of Precipitation, MM = Missing Value Source: Averaged Metar Reports

Daily Weather History Graph

Daily Weather History Graph

Search for Another Location

Airport or City:

Trip Planner

Search our weather history database for the weather conditions in past years. The results will help you decide how hot, cold, wet, or windy it might be!

Date:

Astronomy

Nov. 24, 2012 Rise Set
Actual Time 7:12 AM CST 5:45 PM CST
Civil Twilight 6:47 AM CST 6:10 PM CST
Nautical Twilight 6:18 AM CST 6:39 PM CST
Astronomical Twilight 5:49 AM CST 7:07 PM CST
Moon 3:19 PM CST (11/24) 3:44 AM CST (11/24)
Length of Visible Light 11h 23m
Length of Day
10h 32m
Waxing Gibbous, 87% of the Moon is Illuminated
Nov 24
Waxing Gibbous
Nov 28
Full
Dec 6
Last Quarter
Dec 13
New
Dec 19
First Quarter

Hourly Weather History & Observations

Time (CST) Temp. Dew Point Humidity Pressure Visibility Wind Dir Wind Speed Gust Speed Precip Events Conditions
2:50 AM 57 °F 44 °F 51% 30.43 in 12 mi NW 4.5 mph - -   Mostly Cloudy
5:40 AM 53 °F 45 °F 65% 30.41 in 12 mi NNW 4.5 mph - -   Mostly Cloudy
7:40 AM 53.6 °F 39.2 °F 58% 30.39 in 8.0 mi North 5.8 mph - N/A   Mostly Cloudy
8:38 AM 56 °F 42 °F 48% 30.51 in 14 mi North 4.5 mph - -   Overcast
8:40 AM 55.4 °F 37.4 °F 51% 30.36 in 8.0 mi Calm Calm - N/A   Mostly Cloudy
9:40 AM 59.0 °F 37.4 °F 45% 30.40 in 8.0 mi Calm Calm - N/A   Mostly Cloudy
10:40 AM 60.8 °F 35.6 °F 39% 30.40 in 8.0 mi Calm Calm - N/A   Mostly Cloudy
11:39 AM 67 °F 42 °F 29% 30.38 in 15 mi East 4.5 mph - -   Partly Cloudy
11:40 AM 64.4 °F 30.2 °F 28% 30.32 in 10.0 mi Calm Calm - N/A   Mostly Cloudy
12:40 PM 68.0 °F 37.4 °F 33% 30.31 in 10.0 mi SE 6.9 mph - N/A   Scattered Clouds
1:40 PM 68.0 °F 37.4 °F 33% 30.27 in 10.0 mi Calm Calm - N/A   Scattered Clouds
2:36 PM 73 °F 44 °F 24% 30.25 in 15 mi SSE 4.5 mph - -   Scattered Clouds
2:40 PM 69.8 °F 35.6 °F 28% 30.18 in 10.0 mi Calm Calm - N/A   Partly Cloudy
3:40 PM 69.8 °F 35.6 °F 28% 30.20 in 10.0 mi Calm Calm - N/A   Partly Cloudy
4:40 PM 69.8 °F 35.6 °F 28% 30.19 in 10.0 mi Calm Calm - N/A   Partly Cloudy
5:36 PM 69 °F 46 °F 32% 30.18 in 14 mi SSE 4.5 mph - -  
5:40 PM 68.0 °F 37.4 °F 33% 30.12 in 10.0 mi SE 5.8 mph - N/A   Clear
6:40 PM 62.6 °F 39.2 °F 42% 30.17 in 10.0 mi SE 5.8 mph - N/A   Clear
8:42 PM 61 °F 40 °F 33% 30.17 in 12 mi SSE 2.2 mph - -  
11:39 PM 58 °F 43 °F 46% 30.16 in 12 mi SSE 2.2 mph - -